Regional Weather Roundup
Issued by NWS

Home | Current Version | Previous Version | Text Only | Print | Product List | Glossary Off
Versions: 1 2 3 4 5 6 7 8 9 10 11 12 13 14 15 16 17 18 19 20 21 22 23 24 25 26 27 28 29 30 31 32 33 34 35 36 37 38 39 40 41 42 43 44 45 46 47 48 49 50

000
ASUS43 KLMK 241510
RWRKY
KENTUCKY REGIONAL WEATHER ROUNDUP
NATIONAL WEATHER SERVICE LOUISVILLE KY
1100 AM EDT SUN JUL 24 2016

NOTE "FAIR" INDICATES FEW OR NO CLOUDS BELOW 12,000 FEET
WITH NO SIGNIFICANT WEATHER AND/OR OBSTRUCTIONS TO VISIBILITY.

KYZ001>023-026-027-061>063-070>075-241600-
WESTERN AND SOUTH CENTRAL KENTUCKY

CITY           SKY/WX    TMP DP  RH WIND       PRES   REMARKS
PADUCAH        SUNNY     86  74  67 SW7       29.99S HX  94
HENDERSON      MOSUNNY   86  75  70 SW7       29.99S HX  95
OWENSBORO      SUNNY     87  79  77 S9        30.02R HX 101
HOPKINSVILLE   MOSUNNY   85  77  76 VRB5      30.02S HX  95
BOWLING GREEN  SUNNY     85  75  72 SW5       30.03S HX  93
GLASGOW        SUNNY     83  73  70 S5        30.04S
$$

KYZ024-025-028>034-038-045-046-053-241600-
NORTH CENTRAL KENTUCKY

CITY           SKY/WX    TMP DP  RH WIND       PRES   REMARKS
LOUISVILLE/SDF PTSUNNY   88  75  65 VRB3      30.01S HX  97
LOUISVILLE/LOU SUNNY     88  75  65 S6        30.02S HX  97
FORT KNOX      SUNNY     86  76  73 SE5       30.02R HX  95
$$

KYZ035>037-039>044-047>052-055>060-089>105-241600-
NORTHEAST KENTUCKY

CITY           SKY/WX    TMP DP  RH WIND       PRES   REMARKS
LEXINGTON      SUNNY     86  73  65 W6        30.06R HX  93
COVINGTON      CLOUDY    88  75  65 VRB7      30.04R HX  97
FRANKFORT      SUNNY     86  75  69 CALM      30.03S HX  95
$$

KYZ054-064>069-076>088-106>120-241600-
SOUTHEAST KENTUCKY

CITY           SKY/WX    TMP DP  RH WIND       PRES   REMARKS
JACKSON        MOSUNNY   82  74  76 CALM      30.08R
LONDON         SUNNY     84  70  62 SW8       30.07S
SOMERSET       SUNNY     81  72  74 S3        30.07S
MIDDLESBORO    SUNNY     81  73  75 E5        30.09S
MONTICELLO     SUNNY    N/A N/A N/A VRB6      30.08S
$$




USA.gov is the U.S. government's official web portal to all federal, state and local government web resources and services.